Location: Home
(42.5358°N, 72.7383°W)
Time: 01:30:47
(UTC-04:00)

IRIDIUM 152 - Pass Details

Date: 11 July 2022
Orbit: 776 x 779 km, 86.4° (Epoch: 10 August)

Event Time Altitude Azimuth Distance (km) Brightness Sun altitude
Exits shadow 04:44:11 - 228° (SW) 2,482 ? -6.8°
Reaches altitude 10° 04:44:42 10° 232° (SW) 2,328 ? -6.7°
Maximum altitude 04:48:46 23° 284° (WNW) 1,622 ? -6.1°
Drops below altitude 10° 04:52:52 10° 335° (NNW) 2,340 ? -5.5°
Sets 04:55:43 0° 350° (N) 3,272 ? -5.1°
